| time (UTC) | temp F | wind direction | speed MPH | gust MPH | rain 1hr in | rain 24hr in | rain mn in | humidity % | barometer mb |
| 20260902165820 | 67 | 113 | 0.0 | 1.0 | 0.00 | 0.02 | 0.02 | 93 | 1024.0 |
| 20260902165319 | 67 | 110 | 1.0 | 2.0 | 0.00 | 0.02 | 0.02 | 92 | 1024.3 |
| 20260902164814 | 67 | 108 | 1.0 | 1.0 | 0.00 | 0.02 | 0.02 | 92 | 1024.2 |
| 20260902164308 | 67 | 98 | 0.0 | 1.0 | 0.00 | 0.02 | 0.02 | 92 | 1024.3 |
| 20260902163758 | 67 | 108 | 0.0 | 1.0 | 0.00 | 0.02 | 0.02 | 92 | 1024.3 |
| 20260902163257 | 67 | 107 | 0.0 | 1.0 | 0.00 | 0.02 | 0.02 | 92 | 1024.2 |
| 20260902162755 | 67 | 135 | 1.0 | 1.0 | 0.00 | 0.02 | 0.02 | 92 | 1024.4 |
| 20260902162251 | 67 | 104 | 0.0 | 2.0 | 0.00 | 0.02 | 0.02 | 92 | 1024.1 |
| 20260902161745 | 67 | 117 | 1.0 | 1.0 | 0.00 | 0.02 | 0.02 | 92 | 1024.1 |
| 20260902161241 | 67 | 94 | 0.0 | 1.0 | 0.00 | 0.02 | 0.02 | 92 | 1024.2 |
| 20260902160738 | 67 | 113 | 0.0 | 1.0 | 0.00 | 0.02 | 0.02 | 92 | 1024.2 |
| 20260902160237 | 67 | 92 | 1.0 | 1.0 | 0.00 | 0.02 | 0.02 | 92 | 1024.4 |
| 20260902155735 | 67 | 111 | 0.0 | 1.0 | 0.00 | 0.02 | 0.02 | 92 | 1024.5 |
| 20260902155234 | 67 | 102 | 0.0 | 1.0 | 0.00 | 0.02 | 0.02 | 92 | 1024.1 |
| 20260902154730 | 67 | 117 | 0.0 | 1.0 | 0.00 | 0.02 | 0.02 | 93 | 1024.1 |
| 20260902154230 | 67 | 111 | 0.0 | 2.0 | 0.00 | 0.02 | 0.02 | 93 | 1024.5 |
| 20260902153724 | 67 | 126 | 1.0 | 2.0 | 0.00 | 0.02 | 0.02 | 93 | 1024.0 |
| 20260902153224 | 68 | 140 | 1.0 | 1.0 | 0.00 | 0.02 | 0.02 | 92 | 1024.4 |
| 20260902152720 | 68 | 83 | 1.0 | 1.0 | 0.00 | 0.02 | 0.02 | 92 | 1024.3 |
| 20260902152216 | 67 | 110 | 0.0 | 2.0 | 0.00 | 0.02 | 0.02 | 93 | 1024.3 |
| 20260902151711 | 67 | 113 | 1.0 | 2.0 | 0.00 | 0.02 | 0.02 | 93 | 1024.2 |
| 20260902151206 | 68 | 127 | 0.0 | 2.0 | 0.00 | 0.02 | 0.02 | 93 | 1024.4 |
| 20260902150701 | 67 | 122 | 0.0 | 1.0 | 0.00 | 0.02 | 0.02 | 93 | 1024.4 |
| 20260902150157 | 67 | 118 | 1.0 | 2.0 | 0.00 | 0.02 | 0.02 | 94 | 1024.5 |
| 20260902145656 | 66 | 78 | 1.0 | 1.0 | 0.00 | 0.02 | 0.02 | 94 | 1024.5 |
| 20260902145155 | 66 | 117 | 1.0 | 2.0 | 0.00 | 0.02 | 0.02 | 94 | 1024.5 |
| 20260902144652 | 66 | 93 | 0.0 | 2.0 | 0.00 | 0.02 | 0.02 | 94 | 1024.3 |
| 20260902144148 | 66 | 108 | 0.0 | 1.0 | 0.00 | 0.02 | 0.02 | 94 | 1024.4 |
| 20260902143648 | 65 | 119 | 0.0 | 2.0 | 0.00 | 0.02 | 0.02 | 95 | 1024.3 |
| 20260902143143 | 65 | 103 | 0.0 | 2.0 | 0.00 | 0.02 | 0.02 | 95 | 1024.3 |
| 20260902142638 | 65 | 108 | 1.0 | 2.0 | 0.00 | 0.02 | 0.02 | 96 | 1024.2 |
| 20260902142134 | 64 | 111 | 1.0 | 1.0 | 0.00 | 0.02 | 0.02 | 96 | 1024.1 |
| 20260902141633 | 64 | 122 | 1.0 | 3.0 | 0.00 | 0.02 | 0.02 | 96 | 1024.3 |
| 20260902141129 | 64 | 116 | 0.0 | 1.0 | 0.00 | 0.02 | 0.02 | 96 | 1024.3 |
| 20260902140624 | 63 | 121 | 1.0 | 2.0 | 0.00 | 0.02 | 0.02 | 96 | 1024.5 |
| 20260902140119 | 63 | 284 | 1.0 | 2.0 | 0.00 | 0.02 | 0.02 | 96 | 1024.3 |
| 20260902135619 | 63 | 112 | 0.0 | 2.0 | 0.00 | 0.02 | 0.02 | 97 | 1024.6 |
| 20260902135114 | 63 | 138 | 2.0 | 3.0 | 0.00 | 0.02 | 0.02 | 97 | 1024.2 |
| 20260902134609 | 63 | 116 | 1.0 | 1.0 | 0.00 | 0.02 | 0.02 | 97 | 1024.2 |
| 20260902134104 | 63 | 103 | 1.0 | 2.0 | 0.00 | 0.02 | 0.02 | 97 | 1024.2 |
| 20260902133558 | 63 | 109 | 1.0 | 1.0 | 0.00 | 0.02 | 0.02 | 97 | 1024.3 |
| 20260902133059 | 62 | 112 | 1.0 | 2.0 | 0.00 | 0.02 | 0.02 | 97 | 1023.9 |
| 20260902132554 | 62 | 118 | 0.0 | 1.0 | 0.00 | 0.02 | 0.02 | 97 | 1023.9 |
| 20260902132049 | 62 | 110 | 1.0 | 2.0 | 0.00 | 0.02 | 0.02 | 97 | 1024.1 |
| 20260902131546 | 62 | 109 | 0.0 | 1.0 | 0.00 | 0.02 | 0.02 | 97 | 1024.0 |
| 20260902131046 | 62 | 114 | 0.0 | 1.0 | 0.00 | 0.02 | 0.02 | 97 | 1023.8 |
| 20260902130542 | 62 | 117 | 1.0 | 1.0 | 0.00 | 0.02 | 0.02 | 97 | 1023.8 |
| 20260902130037 | 61 | 138 | 1.0 | 2.0 | 0.00 | 0.02 | 0.02 | 97 | 1024.1 |
| 20260902125533 | 61 | 112 | 0.0 | 1.0 | 0.00 | 0.02 | 0.02 | 97 | 1024.0 |
| 20260902125028 | 61 | 115 | 0.0 | 1.0 | 0.00 | 0.02 | 0.02 | 97 | 1024.0 |
| 20260902124524 | 61 | 116 | 1.0 | 1.0 | 0.00 | 0.02 | 0.02 | 97 | 1024.1 |
| 20260902124019 | 61 | 92 | 0.0 | 1.0 | 0.00 | 0.02 | 0.02 | 97 | 1024.1 |
| 20260902123515 | 61 | 111 | 1.0 | 1.0 | 0.00 | 0.02 | 0.02 | 97 | 1023.9 |
| 20260902123014 | 61 | 111 | 0.0 | 1.0 | 0.00 | 0.02 | 0.02 | 97 | 1023.9 |
| 20260902122509 | 61 | 116 | 0.0 | 2.0 | 0.00 | 0.02 | 0.02 | 97 | 1023.8 |
| 20260902122004 | 61 | 121 | 1.0 | 1.0 | 0.00 | 0.02 | 0.02 | 97 | 1023.8 |
| 20260902121459 | 61 | 137 | 0.0 | 2.0 | 0.00 | 0.02 | 0.02 | 97 | 1023.8 |
| 20260902120954 | 61 | 126 | 1.0 | 2.0 | 0.00 | 0.02 | 0.02 | 97 | 1023.6 |
| 20260902120451 | 61 | 123 | 0.0 | 2.0 | 0.00 | 0.02 | 0.02 | 97 | 1023.6 |
| 20260902115950 | 60 | 114 | 0.0 | 1.0 | 0.00 | 0.02 | 0.02 | 97 | 1023.8 |
| 20260902115446 | 61 | 110 | 0.0 | 2.0 | 0.00 | 0.02 | 0.02 | 97 | 1023.8 |
| 20260902114942 | 61 | 111 | 0.0 | 2.0 | 0.00 | 0.02 | 0.02 | 97 | 1023.6 |
| 20260902114438 | 61 | 111 | 0.0 | 3.0 | 0.00 | 0.02 | 0.02 | 97 | 1023.6 |
| 20260902113933 | 61 | 121 | 0.0 | 1.0 | 0.00 | 0.02 | 0.02 | 97 | 1023.8 |
| 20260902113429 | 61 | 125 | 1.0 | 1.0 | 0.00 | 0.02 | 0.02 | 97 | 1023.8 |
| 20260902112928 | 61 | 101 | 1.0 | 1.0 | 0.00 | 0.02 | 0.02 | 97 | 1024.2 |
| 20260902112424 | 61 | 108 | 1.0 | 2.0 | 0.00 | 0.02 | 0.02 | 97 | 1023.9 |
| 20260902111920 | 61 | 113 | 1.0 | 2.0 | 0.00 | 0.02 | 0.02 | 97 | 1024.0 |
| 20260902111417 | 61 | 122 | 1.0 | 1.0 | 0.00 | 0.02 | 0.02 | 97 | 1023.5 |
| 20260902110912 | 61 | 124 | 1.0 | 2.0 | 0.00 | 0.02 | 0.02 | 97 | 1023.6 |
| 20260902110407 | 61 | 120 | 1.0 | 1.0 | 0.00 | 0.02 | 0.02 | 97 | 1023.9 |
| 20260902105902 | 61 | 126 | 0.0 | 1.0 | 0.00 | 0.02 | 0.02 | 97 | 1023.8 |
| 20260902105356 | 61 | 110 | 0.0 | 0.0 | 0.00 | 0.02 | 0.02 | 97 | 1023.5 |
| 20260902104851 | 61 | 102 | 0.0 | 1.0 | 0.07 | 0.02 | 0.02 | 97 | 1023.6 |
| 20260902104348 | 61 | 108 | 0.0 | 1.0 | 0.07 | 0.02 | 0.02 | 97 | 1023.6 |
| 20260902103847 | 61 | 108 | 0.0 | 1.0 | 0.00 | 0.01 | 0.01 | 97 | 1023.8 |
| 20260902103342 | 61 | 111 | 0.0 | 2.0 | 0.00 | 0.01 | 0.01 | 97 | 1023.6 |
| 20260902102837 | 61 | 100 | 0.0 | 1.0 | 0.00 | 0.01 | 0.01 | 97 | 1023.4 |
| 20260902102336 | 61 | 134 | 1.0 | 2.0 | 0.00 | 0.01 | 0.01 | 97 | 1023.1 |
| 20260902101830 | 61 | 114 | 1.0 | 2.0 | 0.00 | 0.01 | 0.01 | 97 | 1023.2 |
| 20260902101324 | 61 | 121 | 1.0 | 2.0 | 0.00 | 0.01 | 0.01 | 97 | 1023.3 |
| 20260902100824 | 61 | 99 | 1.0 | 2.0 | 0.00 | 0.01 | 0.01 | 97 | 1023.2 |
| 20260902100318 | 61 | 114 | 1.0 | 1.0 | 0.00 | 0.01 | 0.01 | 97 | 1023.3 |
| 20260902095813 | 61 | 117 | 1.0 | 1.0 | 0.00 | 0.01 | 0.01 | 97 | 1023.0 |
| 20260902095308 | 61 | 115 | 1.0 | 2.0 | 0.00 | 0.01 | 0.01 | 97 | 1023.1 |
| 20260902094802 | 62 | 119 | 1.0 | 2.0 | 0.00 | 0.01 | 0.01 | 97 | 1023.1 |
| 20260902094259 | 62 | 115 | 1.0 | 1.0 | 0.00 | 0.01 | 0.01 | 97 | 1023.1 |
| 20260902093758 | 62 | 109 | 1.0 | 2.0 | 0.00 | 0.01 | 0.01 | 97 | 1023.1 |
| 20260902093253 | 62 | 110 | 0.0 | 1.0 | 0.00 | 0.01 | 0.01 | 97 | 1022.9 |
| 20260902092752 | 62 | 111 | 1.0 | 1.0 | 0.00 | 0.01 | 0.01 | 97 | 1023.1 |
| 20260902092248 | 62 | 100 | 0.0 | 1.0 | 0.00 | 0.01 | 0.01 | 97 | 1023.2 |
| 20260902091747 | 62 | 117 | 0.0 | 1.0 | 0.00 | 0.01 | 0.01 | 97 | 1023.1 |
| 20260902091244 | 62 | 111 | 1.0 | 1.0 | 0.00 | 0.01 | 0.01 | 97 | 1023.2 |
| 20260902090740 | 62 | 116 | 0.0 | 1.0 | 0.00 | 0.01 | 0.01 | 97 | 1023.1 |
| 20260902090239 | 62 | 109 | 0.0 | 0.0 | 0.00 | 0.01 | 0.01 | 97 | 1023.1 |
| 20260902085733 | 62 | 108 | 0.0 | 2.0 | 0.00 | 0.01 | 0.01 | 97 | 1022.9 |
| 20260902085229 | 62 | 103 | 0.0 | 2.0 | 0.00 | 0.01 | 0.01 | 97 | 1022.9 |
| 20260902084724 | 62 | 113 | 0.0 | 1.0 | 0.00 | 0.01 | 0.01 | 97 | 1022.7 |
| 20260902084221 | 62 | 107 | 0.0 | 1.0 | 0.00 | 0.01 | 0.01 | 97 | 1022.6 |
| 20260902083720 | 62 | 123 | 1.0 | 2.0 | 0.00 | 0.01 | 0.01 | 97 | 1022.6 |
| 20260902083220 | 62 | 126 | 1.0 | 1.0 | 0.00 | 0.01 | 0.01 | 97 | 1022.5 |
| 20260902082716 | 62 | 130 | 1.0 | 2.0 | 0.07 | 0.01 | 0.01 | 97 | 1022.6 |
| 20260902082212 | 62 | 109 | 2.0 | 2.0 | 0.07 | 0.01 | 0.01 | 97 | 1022.4 |
| 20260902081708 | 62 | 118 | 0.0 | 1.0 | 0.00 | 0.00 | 0.00 | 97 | 1022.4 |
| 20260902081203 | 62 | 106 | 0.0 | 1.0 | 0.00 | 0.00 | 0.00 | 97 | 1022.5 |
| 20260902080658 | 62 | 110 | 0.0 | 1.0 | 0.00 | 0.00 | 0.00 | 97 | 1022.2 |
| 20260902080155 | 62 | 111 | 0.0 | 1.0 | 0.00 | 0.00 | 0.00 | 97 | 1022.2 |
| 20260902075655 | 62 | 109 | 0.0 | 2.0 | 0.00 | 0.00 | 0.00 | 97 | 1022.3 |
| 20260902075150 | 62 | 121 | 1.0 | 2.0 | 0.00 | 0.00 | 0.00 | 97 | 1022.0 |
| 20260902074645 | 62 | 113 | 1.0 | 1.0 | 0.00 | 0.00 | 0.00 | 97 | 1022.1 |
| 20260902074141 | 62 | 117 | 1.0 | 1.0 | 0.00 | 0.00 | 0.00 | 97 | 1022.3 |
| 20260902073636 | 62 | 108 | 0.0 | 1.0 | 0.00 | 0.00 | 0.00 | 97 | 1022.2 |
| 20260902073132 | 62 | 110 | 1.0 | 1.0 | 0.00 | 0.00 | 0.00 | 97 | 1022.2 |
| 20260902072628 | 62 | 109 | 0.0 | 1.0 | 0.00 | 0.00 | 0.00 | 97 | 1022.0 |
| 20260902072124 | 62 | 108 | 0.0 | 1.0 | 0.00 | 0.00 | 0.00 | 97 | 1022.2 |
| 20260902071619 | 62 | 107 | 0.0 | 1.0 | 0.00 | 0.00 | 0.00 | 97 | 1022.1 |
| 20260902071115 | 62 | 113 | 0.0 | 0.0 | 0.00 | 0.00 | 0.00 | 97 | 1021.9 |
| 20260902070610 | 62 | 113 | 0.0 | 0.0 | 0.00 | 0.00 | 0.00 | 97 | 1021.9 |
| 20260902070105 | 62 | 108 | 0.0 | 1.0 | 0.00 | 0.00 | 0.00 | 97 | 1021.8 |
| 20260902065558 | 62 | 113 | 0.0 | 1.0 | 0.00 | 0.00 | 0.00 | 97 | 1022.0 |
| 20260902065054 | 62 | 108 | 0.0 | 1.0 | 0.00 | 0.00 | 0.00 | 97 | 1022.1 |
| 20260902064550 | 62 | 111 | 0.0 | 1.0 | 0.00 | 0.00 | 0.00 | 97 | 1022.2 |
| 20260902064045 | 62 | 105 | 0.0 | 1.0 | 0.00 | 0.00 | 0.00 | 97 | 1022.0 |
| 20260902063545 | 62 | 105 | 0.0 | 0.0 | 0.00 | 0.00 | 0.00 | 97 | 1022.2 |
| 20260902063040 | 62 | 103 | 0.0 | 1.0 | 0.00 | 0.00 | 0.00 | 97 | 1022.0 |
| 20260902062539 | 62 | 153 | 1.0 | 1.0 | 0.00 | 0.00 | 0.00 | 97 | 1022.3 |
| 20260902062035 | 62 | 108 | 0.0 | 2.0 | 0.00 | 0.00 | 0.00 | 97 | 1022.3 |
| 20260902061534 | 62 | 103 | 0.0 | 2.0 | 0.00 | 0.00 | 0.00 | 97 | 1022.2 |
| 20260902061030 | 62 | 109 | 1.0 | 1.0 | 0.00 | 0.00 | 0.00 | 97 | 1022.1 |
| 20260902060526 | 62 | 116 | 1.0 | 2.0 | 0.00 | 0.00 | 0.00 | 97 | 1022.2 |
| 20260902060022 | 62 | 120 | 0.0 | 1.0 | 0.00 | 0.00 | 0.00 | 97 | 1022.3 |
| 20260902055518 | 62 | 114 | 0.0 | 1.0 | 0.00 | 0.00 | 0.00 | 97 | 1022.5 |
| 20260902055014 | 62 | 109 | 0.0 | 1.0 | 0.00 | 0.00 | 0.00 | 96 | 1022.5 |
| 20260902054513 | 62 | 101 | 0.0 | 1.0 | 0.00 | 0.00 | 0.00 | 97 | 1022.4 |
| 20260902054009 | 62 | 109 | 0.0 | 1.0 | 0.00 | 0.00 | 0.00 | 96 | 1022.4 |
| 20260902053504 | 62 | 103 | 0.0 | 1.0 | 0.00 | 0.00 | 0.00 | 96 | 1022.5 |
| 20260902053004 | 62 | 117 | 1.0 | 1.0 | 0.00 | 0.00 | 0.00 | 96 | 1022.2 |
| 20260902052458 | 62 | 108 | 0.0 | 1.0 | 0.00 | 0.00 | 0.00 | 96 | 1022.2 |
| 20260902051954 | 62 | 128 | 1.0 | 1.0 | 0.00 | 0.00 | 0.00 | 96 | 1022.2 |
| 20260902051453 | 62 | 102 | 0.0 | 0.0 | 0.00 | 0.00 | 0.00 | 96 | 1022.4 |
| 20260902050952 | 62 | 106 | 0.0 | 0.0 | 0.00 | 0.00 | 0.00 | 96 | 1022.3 |
| 20260902050447 | 62 | 130 | 1.0 | 1.0 | 0.00 | 0.00 | 0.00 | 96 | 1022.4 |
| 20260902045942 | 62 | 99 | 0.0 | 0.0 | 0.00 | 0.00 | 0.00 | 96 | 1022.3 |
| 20260902045438 | 62 | 111 | 0.0 | 0.0 | 0.00 | 0.00 | 0.00 | 96 | 1022.1 |
| 20260902044934 | 62 | 111 | 0.0 | 1.0 | 0.00 | 0.00 | 0.00 | 96 | 1022.1 |
| 20260902044429 | 62 | 108 | 0.0 | 2.0 | 0.00 | 0.00 | 0.00 | 96 | 1021.9 |
| 20260902043924 | 62 | 102 | 1.0 | 2.0 | 0.00 | 0.00 | 0.00 | 96 | 1022.0 |
| 20260902043414 | 63 | 127 | 1.0 | 1.0 | 0.00 | 0.00 | 0.00 | 96 | 1022.1 |
| 20260902042909 | 63 | 110 | 0.0 | 1.0 | 0.00 | 0.00 | 0.00 | 96 | 1021.9 |
| 20260902042408 | 63 | 122 | 1.0 | 1.0 | 0.00 | 0.00 | 0.00 | 96 | 1022.3 |
| 20260902041904 | 63 | 117 | 0.0 | 0.0 | 0.00 | 0.00 | 0.00 | 96 | 1022.3 |
| 20260902041403 | 62 | 112 | 1.0 | 2.0 | 0.00 | 0.00 | 0.00 | 96 | 1021.9 |
| 20260902040902 | 62 | 120 | 1.0 | 1.0 | 0.00 | 0.00 | 0.00 | 96 | 1021.8 |
| 20260902040358 | 62 | 114 | 1.0 | 2.0 | 0.00 | 0.00 | 0.00 | 96 | 1022.1 |
| 20260902035857 | 62 | 88 | 1.0 | 2.0 | 0.00 | 1.14 | 1.14 | 96 | 1021.8 |
| 20260902035352 | 63 | 125 | 0.0 | 1.0 | 0.00 | 1.14 | 1.14 | 96 | 1021.8 |
| 20260902034851 | 63 | 110 | 2.0 | 2.0 | 0.00 | 1.14 | 1.14 | 96 | 1021.6 |
| 20260902034346 | 63 | 106 | 0.0 | 2.0 | 0.00 | 1.14 | 1.14 | 96 | 1021.5 |
| 20260902033844 | 63 | 118 | 0.0 | 2.0 | 0.00 | 1.14 | 1.14 | 96 | 1021.8 |
| 20260902033339 | 63 | 111 | 1.0 | 2.0 | 0.00 | 1.14 | 1.14 | 96 | 1021.6 |
| 20260902032839 | 63 | 113 | 1.0 | 2.0 | 0.00 | 1.14 | 1.14 | 96 | 1021.6 |
| 20260902032339 | 63 | 154 | 2.0 | 3.0 | 0.00 | 1.14 | 1.14 | 96 | 1021.3 |
| 20260902031833 | 63 | 123 | 2.0 | 2.0 | 0.00 | 1.14 | 1.14 | 96 | 1021.3 |
| 20260902031330 | 63 | 100 | 1.0 | 2.0 | 0.00 | 1.14 | 1.14 | 96 | 1020.9 |
| 20260902030825 | 63 | 119 | 2.0 | 2.0 | 0.00 | 1.14 | 1.14 | 96 | 1021.2 |
| 20260902030319 | 63 | 149 | 1.0 | 3.0 | 0.00 | 1.14 | 1.14 | 96 | 1021.1 |
| 20260902025818 | 63 | 111 | 2.0 | 2.0 | 0.00 | 1.14 | 1.14 | 96 | 1021.3 |
| 20260902025314 | 63 | 96 | 1.0 | 2.0 | 0.00 | 1.14 | 1.14 | 96 | 1021.2 |
| 20260902024809 | 63 | 149 | 1.0 | 2.0 | 0.00 | 1.14 | 1.14 | 96 | 1021.0 |
| 20260902024304 | 63 | 144 | 2.0 | 3.0 | 0.00 | 1.14 | 1.14 | 96 | 1021.4 |
| 20260902023759 | 63 | 119 | 1.0 | 2.0 | 0.00 | 1.14 | 1.14 | 96 | 1021.3 |
| 20260902023255 | 63 | 128 | 2.0 | 2.0 | 0.00 | 1.14 | 1.14 | 96 | 1021.0 |
| 20260902022754 | 63 | 127 | 0.0 | 1.0 | 0.00 | 1.14 | 1.14 | 96 | 1021.3 |
| 20260902022250 | 63 | 113 | 2.0 | 2.0 | 0.00 | 1.14 | 1.14 | 96 | 1021.1 |
| 20260902021745 | 63 | 172 | 2.0 | 3.0 | 0.00 | 1.14 | 1.14 | 96 | 1020.9 |
| 20260902021245 | 63 | 105 | 1.0 | 2.0 | 0.00 | 1.14 | 1.14 | 96 | 1020.8 |
| 20260902020741 | 64 | 90 | 2.0 | 3.0 | 0.00 | 1.14 | 1.14 | 96 | 1020.7 |
| 20260902020237 | 64 | 122 | 2.0 | 3.0 | 0.00 | 1.14 | 1.14 | 96 | 1020.8 |
| 20260902015733 | 64 | 118 | 3.0 | 3.0 | 0.00 | 1.14 | 1.14 | 96 | 1020.7 |
| 20260902015229 | 64 | 104 | 1.0 | 2.0 | 0.00 | 1.14 | 1.14 | 96 | 1021.0 |
| 20260902014724 | 64 | 122 | 2.0 | 3.0 | 0.00 | 1.14 | 1.14 | 96 | 1020.4 |
| 20260902014220 | 64 | 120 | 0.0 | 3.0 | 0.00 | 1.14 | 1.14 | 96 | 1020.4 |
| 20260902013718 | 64 | 107 | 2.0 | 2.0 | 0.00 | 1.14 | 1.14 | 96 | 1020.3 |
| 20260902013215 | 64 | 99 | 2.0 | 3.0 | 0.00 | 1.14 | 1.14 | 96 | 1020.5 |
| 20260902012710 | 64 | 124 | 1.0 | 2.0 | 0.00 | 1.14 | 1.14 | 96 | 1020.4 |
| 20260902012206 | 64 | 124 | 2.0 | 3.0 | 0.00 | 1.14 | 1.14 | 96 | 1020.2 |
| 20260902011700 | 64 | 130 | 2.0 | 3.0 | 0.00 | 1.14 | 1.14 | 96 | 1020.2 |
| 20260902011155 | 64 | 116 | 2.0 | 3.0 | 0.00 | 1.14 | 1.14 | 96 | 1020.1 |
| 20260902010654 | 64 | 96 | 2.0 | 3.0 | 0.00 | 1.14 | 1.14 | 96 | 1020.1 |
| 20260902010150 | 64 | 90 | 2.0 | 5.0 | 0.00 | 1.14 | 1.14 | 96 | 1019.8 |
| 20260902005648 | 65 | 120 | 2.0 | 3.0 | 0.00 | 1.14 | 1.14 | 96 | 1019.9 |
| 20260902005144 | 64 | 117 | 2.0 | 3.0 | 0.00 | 1.14 | 1.14 | 96 | 1019.9 |
| 20260902004643 | 65 | 105 | 1.0 | 3.0 | 0.00 | 1.14 | 1.14 | 96 | 1019.8 |
| 20260902004139 | 65 | 80 | 2.0 | 3.0 | 0.00 | 1.14 | 1.14 | 96 | 1020.1 |
| 20260902003634 | 65 | 137 | 1.0 | 5.0 | 0.00 | 1.14 | 1.14 | 96 | 1020.0 |
| 20260902003129 | 65 | 118 | 1.0 | 2.0 | 0.00 | 1.14 | 1.14 | 96 | 1019.9 |
| 20260902002625 | 66 | 133 | 2.0 | 3.0 | 0.00 | 1.14 | 1.14 | 96 | 1019.7 |
| 20260902002119 | 65 | 109 | 0.0 | 2.0 | 0.00 | 1.14 | 1.14 | 96 | 1019.5 |
| 20260902001614 | 66 | 128 | 2.0 | 3.0 | 0.00 | 1.14 | 1.14 | 96 | 1019.1 |
| 20260902001109 | 66 | 118 | 3.0 | 6.0 | 0.00 | 1.14 | 1.14 | 96 | 1019.1 |
| 20260902000604 | 66 | 124 | 1.0 | 3.0 | 0.00 | 1.14 | 1.14 | 96 | 1019.1 |
| 20260902000100 | 66 | 121 | 2.0 | 3.0 | 0.00 | 1.14 | 1.14 | 96 | 1019.2 |
| 20260901235559 | 66 | 141 | 2.0 | 3.0 | 0.00 | 1.14 | 1.14 | 96 | 1019.1 |
| 20260901235055 | 66 | 122 | 2.0 | 3.0 | 0.00 | 1.14 | 1.14 | 96 | 1019.0 |
| 20260901234553 | 67 | 122 | 1.0 | 3.0 | 0.00 | 1.14 | 1.14 | 96 | 1019.5 |
| 20260901234049 | 67 | 121 | 1.0 | 5.0 | 0.00 | 1.14 | 1.14 | 96 | 1019.5 |
| 20260901233549 | 67 | 116 | 3.0 | 3.0 | 0.00 | 1.14 | 1.14 | 96 | 1019.4 |
| 20260901233045 | 67 | 148 | 0.0 | 2.0 | 0.00 | 1.14 | 1.14 | 96 | 1019.2 |
| 20260901232540 | 67 | 150 | 2.0 | 3.0 | 0.00 | 1.14 | 1.14 | 96 | 1019.3 |
| 20260901232035 | 68 | 131 | 2.0 | 5.0 | 0.00 | 1.14 | 1.14 | 96 | 1018.9 |
| 20260901231531 | 68 | 135 | 3.0 | 3.0 | 0.00 | 1.14 | 1.14 | 96 | 1018.8 |
| 20260901231028 | 69 | 116 | 2.0 | 5.0 | 0.00 | 1.14 | 1.14 | 96 | 1018.9 |
| 20260901230528 | 69 | 135 | 1.0 | 3.0 | 0.00 | 1.14 | 1.14 | 96 | 1018.9 |
| 20260901230023 | 70 | 122 | 1.0 | 3.0 | 0.00 | 1.14 | 1.14 | 96 | 1018.8 |
| 20260901225518 | 70 | 146 | 2.0 | 3.0 | 0.00 | 1.14 | 1.14 | 96 | 1018.7 |
| 20260901225012 | 70 | 124 | 1.0 | 3.0 | 0.00 | 1.14 | 1.14 | 96 | 1018.4 |
| 20260901224508 | 71 | 127 | 1.0 | 3.0 | 0.00 | 1.14 | 1.14 | 96 | 1018.4 |
| 20260901224004 | 71 | 97 | 1.0 | 2.0 | 0.00 | 1.14 | 1.14 | 96 | 1018.3 |
| 20260901223500 | 72 | 106 | 2.0 | 3.0 | 0.00 | 1.14 | 1.14 | 96 | 1018.4 |
| 20260901222955 | 72 | 144 | 1.0 | 3.0 | 0.00 | 1.14 | 1.14 | 96 | 1018.4 |
| 20260901222451 | 72 | 129 | 3.0 | 3.0 | 0.00 | 1.14 | 1.14 | 96 | 1018.0 |
| 20260901221947 | 73 | 149 | 2.0 | 3.0 | 0.00 | 1.14 | 1.14 | 96 | 1018.1 |
| 20260901221443 | 73 | 149 | 3.0 | 3.0 | 0.00 | 1.14 | 1.14 | 96 | 1018.0 |
| 20260901220943 | 74 | 127 | 1.0 | 2.0 | 0.00 | 1.14 | 1.14 | 96 | 1018.2 |
| 20260901220442 | 74 | 116 | 0.0 | 2.0 | 0.00 | 1.14 | 1.14 | 96 | 1018.1 |
| 20260901215941 | 74 | 141 | 1.0 | 2.0 | 0.00 | 1.14 | 1.14 | 96 | 1018.3 |
| 20260901215439 | 74 | 136 | 1.0 | 1.0 | 0.00 | 1.14 | 1.14 | 96 | 1018.2 |
| 20260901214939 | 74 | 132 | 0.0 | 1.0 | 0.00 | 1.14 | 1.14 | 96 | 1017.8 |
| 20260901214437 | 74 | 129 | 0.0 | 1.0 | 0.00 | 1.14 | 1.14 | 96 | 1018.2 |
| 20260901213932 | 75 | 130 | 0.0 | 1.0 | 0.00 | 1.14 | 1.14 | 96 | 1018.0 |
| 20260901213427 | 75 | 118 | 0.0 | 1.0 | 0.00 | 1.14 | 1.14 | 96 | 1018.1 |
| 20260901212926 | 75 | 103 | 0.0 | 0.0 | 0.00 | 1.14 | 1.14 | 96 | 1018.2 |
| 20260901212421 | 75 | 126 | 0.0 | 1.0 | 0.00 | 1.14 | 1.14 | 96 | 1018.0 |
| 20260901211918 | 75 | 144 | 1.0 | 1.0 | 0.00 | 1.14 | 1.14 | 95 | 1018.2 |
| 20260901211414 | 75 | 120 | 0.0 | 1.0 | 0.00 | 1.14 | 1.14 | 95 | 1018.0 |
| 20260901210909 | 75 | 118 | 0.0 | 1.0 | 0.00 | 1.14 | 1.14 | 95 | 1018.0 |
| 20260901210404 | 75 | 129 | 0.0 | 1.0 | 0.00 | 1.14 | 1.14 | 95 | 1017.9 |
| 20260901205901 | 76 | 121 | 0.0 | 1.0 | 0.00 | 1.14 | 1.14 | 95 | 1018.0 |
| 20260901205355 | 76 | 122 | 0.0 | 1.0 | 0.00 | 1.14 | 1.14 | 95 | 1018.0 |
| 20260901204850 | 76 | 114 | 0.0 | 1.0 | 0.00 | 1.14 | 1.14 | 95 | 1018.0 |
| 20260901204347 | 77 | 121 | 0.0 | 0.0 | 0.00 | 1.14 | 1.14 | 95 | 1018.1 |
| 20260901203846 | 77 | 119 | 0.0 | 0.0 | 0.00 | 1.14 | 1.14 | 95 | 1018.0 |
| 20260901203341 | 77 | 119 | 0.0 | 0.0 | 0.00 | 1.14 | 1.14 | 95 | 1017.9 |
| 20260901202836 | 76 | 121 | 0.0 | 1.0 | 0.00 | 1.14 | 1.14 | 95 | 1017.8 |
| 20260901202331 | 76 | 114 | 0.0 | 0.0 | 0.00 | 1.14 | 1.14 | 95 | 1017.8 |
| 20260901201827 | 76 | 116 | 0.0 | 1.0 | 0.00 | 1.14 | 1.14 | 95 | 1017.8 |
| 20260901201326 | 76 | 122 | 0.0 | 1.0 | 0.00 | 1.14 | 1.14 | 95 | 1018.1 |
| 20260901200820 | 76 | 111 | 0.0 | 1.0 | 0.00 | 1.14 | 1.14 | 95 | 1017.9 |
| 20260901200316 | 76 | 111 | 0.0 | 0.0 | 0.00 | 1.14 | 1.14 | 95 | 1018.0 |
| 20260901195814 | 76 | 114 | 0.0 | 1.0 | 0.00 | 1.14 | 1.14 | 95 | 1017.9 |
| 20260901195313 | 75 | 102 | 0.0 | 2.0 | 0.00 | 1.14 | 1.14 | 96 | 1017.9 |
| 20260901194809 | 75 | 106 | 2.0 | 5.0 | 0.00 | 1.14 | 1.14 | 96 | 1018.2 |
| 20260901194303 | 75 | 101 | 0.0 | 2.0 | 0.00 | 1.14 | 1.14 | 96 | 1018.0 |
| 20260901193800 | 77 | 86 | 0.0 | 1.0 | 0.00 | 1.14 | 1.14 | 97 | 1018.1 |
| 20260901193258 | 76 | 100 | 0.0 | 1.0 | 0.00 | 1.14 | 1.14 | 97 | 1018.1 |
| 20260901192753 | 75 | 113 | 0.0 | 1.0 | 0.00 | 1.14 | 1.14 | 97 | 1018.0 |
| 20260901192248 | 75 | 123 | 0.0 | 1.0 | 0.00 | 1.14 | 1.14 | 97 | 1017.9 |
| 20260901191744 | 74 | 109 | 1.0 | 2.0 | 0.00 | 1.14 | 1.14 | 98 | 1017.8 |
| 20260901191240 | 75 | 115 | 1.0 | 1.0 | 0.00 | 1.14 | 1.14 | 98 | 1018.1 |
| 20260901190736 | 74 | 93 | 0.0 | 2.0 | 0.00 | 1.14 | 1.14 | 98 | 1018.0 |
| 20260901190230 | 75 | 14 | 1.0 | 3.0 | 0.00 | 1.14 | 1.14 | 98 | 1018.2 |
| 20260901185728 | 75 | 126 | 0.0 | 1.0 | 0.00 | 1.14 | 1.14 | 98 | 1017.9 |
| 20260901185227 | 74 | 118 | 0.0 | 1.0 | 0.00 | 1.14 | 1.14 | 98 | 1017.9 |
| 20260901184723 | 75 | 102 | 0.0 | 3.0 | 0.00 | 1.14 | 1.14 | 98 | 1017.7 |
| 20260901184218 | 74 | 126 | 1.0 | 1.0 | 0.00 | 1.14 | 1.14 | 98 | 1018.0 |
| 20260901183714 | 74 | 117 | 0.0 | 0.0 | 0.00 | 1.14 | 1.14 | 98 | 1018.0 |
| 20260901183213 | 74 | 113 | 0.0 | 1.0 | 0.00 | 1.14 | 1.14 | 98 | 1018.2 |
| 20260901182710 | 74 | 171 | 0.0 | 0.0 | 0.00 | 1.14 | 1.14 | 98 | 1018.3 |
| 20260901182209 | 74 | 112 | 0.0 | 0.0 | 0.00 | 1.14 | 1.14 | 98 | 1018.1 |
| 20260901181704 | 73 | 113 | 0.0 | 1.0 | 0.00 | 1.14 | 1.14 | 98 | 1018.1 |
| 20260901181203 | 73 | 121 | 0.0 | 0.0 | 0.00 | 1.14 | 1.14 | 98 | 1018.1 |
| 20260901180657 | 73 | 129 | 1.0 | 1.0 | 0.00 | 1.14 | 1.14 | 98 | 1018.0 |
| 20260901180151 | 73 | 113 | 0.0 | 0.0 | 0.00 | 1.14 | 1.14 | 98 | 1018.2 |
| 20260901175651 | 73 | 114 | 0.0 | 0.0 | 0.00 | 1.14 | 1.14 | 98 | 1018.1 |
| 20260901175151 | 73 | 109 | 0.0 | 0.0 | 0.00 | 1.14 | 1.14 | 98 | 1018.1 |
| 20260901174646 | 72 | 99 | 0.0 | 0.0 | 0.00 | 1.14 | 1.14 | 98 | 1018.1 |
| 20260901174142 | 72 | 122 | 0.0 | 1.0 | 0.00 | 1.14 | 1.14 | 98 | 1018.0 |
| 20260901173637 | 73 | 316 | 0.0 | 0.0 | 0.00 | 1.14 | 1.14 | 98 | 1018.2 |
| 20260901173132 | 73 | 107 | 0.0 | 0.0 | 0.00 | 1.14 | 1.14 | 98 | 1018.3 |
| 20260901172628 | 72 | 120 | 0.0 | 0.0 | 0.00 | 1.14 | 1.14 | 98 | 1018.3 |
| 20260901172126 | 72 | 116 | 0.0 | 0.0 | 0.00 | 1.14 | 1.14 | 98 | 1018.3 |
| 20260901171626 | 72 | 124 | 0.0 | 0.0 | 0.00 | 1.14 | 1.14 | 98 | 1018.5 |
| 20260901171119 | 71 | 120 | 0.0 | 1.0 | 0.00 | 1.14 | 1.14 | 98 | 1018.1 |
| 20260901170619 | 71 | 133 | 0.0 | 1.0 | 0.00 | 1.14 | 1.14 | 98 | 1018.7 |